ZS1DFR-1 Weather Reports


Display with metric or nautical units.
time (UTC)temp
F
wind
direction
speed
MPH
gust
MPH
rain 1hr
in
rain 24hr
in
rain mn
in
humidity
%
barometer
mb
20260509172343 61 0 0.0 9.0 0.00 0.00 0.00 76 1003.9
20260509172341 61 0 0.0 9.0 0.00 0.00 0.00 76 1003.9
20260509170841 61 0 0.0 9.0 0.00 0.00 0.00 76 1003.9
20260509165343 61 23 0.0 11.0 0.00 0.00 0.00 80 1004.1
20260509165340 61 23 0.0 11.0 0.00 0.00 0.00 80 1004.1
20260509163841 61 23 0.0 11.0 0.00 0.00 0.00 80 1004.1
20260509162340 61 23 0.0 3.0 0.00 0.00 0.00 81 1004.2
20260509160840 61 23 0.0 3.0 0.00 0.00 0.00 81 1004.2
20260509155340 61 338 0.0 6.0 0.00 0.00 0.00 79 1004.3
20260509153840 61 338 0.0 6.0 0.00 0.00 0.00 79 1004.3
20260509152340 62 0 0.0 0.0 0.00 0.00 0.00 76 1004.3
20260509150840 62 0 0.0 0.0 0.00 0.00 0.00 76 1004.3
20260509145340 63 293 0.0 3.0 0.00 0.00 0.00 75 1004.3
20260509143840 63 293 0.0 3.0 0.00 0.00 0.00 75 1004.3
20260509142340 64 270 0.0 8.0 0.00 0.00 0.00 71 1004.6
20260509140840 64 270 0.0 8.0 0.00 0.00 0.00 71 1004.6
20260509135340 65 0 0.0 9.0 0.00 0.00 0.00 65 1004.6
20260509133840 65 0 0.0 9.0 0.00 0.00 0.00 65 1004.6
20260509132340 65 0 0.0 3.0 0.00 0.00 0.00 67 1004.9
20260509130843 65 0 0.0 3.0 0.00 0.00 0.00 67 1004.9
20260509130840 65 0 0.0 3.0 0.00 0.00 0.00 67 1004.9
20260509125340 66 293 0.0 1.0 0.00 0.00 0.00 63 1005.6
20260509123840 66 293 0.0 1.0 0.00 0.00 0.00 63 1005.6
20260509122340 65 270 0.0 17.0 0.00 0.00 0.00 62 1006.2
20260509120840 65 270 0.0 17.0 0.00 0.00 0.00 62 1006.2
20260509115340 67 293 0.0 8.0 0.00 0.00 0.00 55 1006.6
20260509113840 67 293 0.0 8.0 0.00 0.00 0.00 55 1006.6
20260509112343 67 293 0.0 9.0 0.00 0.00 0.00 57 1007.3
20260509112340 67 293 0.0 9.0 0.00 0.00 0.00 57 1007.3
20260509110842 67 293 0.0 9.0 0.00 0.00 0.00 57 1007.3
20260509110840 67 293 0.0 9.0 0.00 0.00 0.00 57 1007.3
20260509105340 66 293 0.0 9.0 0.00 0.00 0.00 65 1007.7
20260509103840 66 293 0.0 9.0 0.00 0.00 0.00 65 1007.7
20260509102340 66 338 0.0 4.0 0.00 0.00 0.00 67 1007.9
20260509100840 66 338 0.0 4.0 0.00 0.00 0.00 67 1007.9
20260509095340 64 0 0.0 5.0 0.00 0.00 0.00 75 1008.5
20260509093840 64 0 0.0 5.0 0.00 0.00 0.00 75 1008.5
20260509092340 63 23 0.0 7.0 0.00 0.00 0.00 81 1008.9
20260509090841 63 23 0.0 7.0 0.00 0.00 0.00 81 1008.9
20260509085340 62 0 0.0 0.0 0.00 0.00 0.00 86 1009.4
20260509083842 62 0 0.0 0.0 0.00 0.00 0.00 86 1009.4
20260509082340 60 0 0.0 0.0 0.00 0.00 0.00 89 1009.7
20260509080840 60 0 0.0 0.0 0.00 0.00 0.00 89 1009.7
20260509075340 58 0 0.0 5.0 0.00 0.00 0.00 91 1009.9
20260509073840 58 0 0.0 5.0 0.00 0.00 0.00 91 1009.9
20260509072340 55 0 0.0 0.0 0.00 0.00 0.00 95 1009.9
20260509070840 55 0 0.0 0.0 0.00 0.00 0.00 95 1009.9
20260509065340 51 0 0.0 0.0 0.00 0.00 0.00 95 1009.7
20260509063842 51 0 0.0 0.0 0.00 0.00 0.00 95 1009.7
20260509063840 51 0 0.0 0.0 0.00 0.00 0.00 95 1009.7
20260509062340 48 0 0.0 0.0 0.00 0.00 0.00 96 1009.7
20260509060840 48 0 0.0 0.0 0.00 0.00 0.00 96 1009.7
20260509055340 47 0 0.0 0.0 0.00 0.00 0.00 95 1009.9
20260509053842 47 0 0.0 0.0 0.00 0.00 0.00 95 1009.9
20260509053840 47 0 0.0 0.0 0.00 0.00 0.00 95 1009.9
20260509052342 47 0 0.0 0.0 0.00 0.00 0.00 95 1010.0
20260509052340 47 0 0.0 0.0 0.00 0.00 0.00 95 1010.0
20260509050840 47 0 0.0 0.0 0.00 0.00 0.00 95 1010.0
20260509045342 48 0 0.0 0.0 0.00 0.00 0.00 95 1010.1
20260509045340 48 0 0.0 0.0 0.00 0.00 0.00 95 1010.1
20260509043840 48 0 0.0 0.0 0.00 0.00 0.00 95 1010.1
20260509042342 48 0 0.0 0.0 0.00 0.00 0.00 95 1010.2
20260509040840 48 0 0.0 0.0 0.00 0.00 0.00 95 1010.2
20260509035340 49 0 0.0 0.0 0.00 0.00 0.00 95 1010.4
20260509033843 49 0 0.0 0.0 0.00 0.00 0.00 95 1010.4
20260509033840 49 0 0.0 0.0 0.00 0.00 0.00 95 1010.4
20260509032342 49 0 0.0 0.0 0.00 0.00 0.00 95 1010.5
20260509032340 49 0 0.0 0.0 0.00 0.00 0.00 95 1010.5
20260509030842 49 0 0.0 0.0 0.00 0.00 0.00 95 1010.5
20260509030839 49 0 0.0 0.0 0.00 0.00 0.00 95 1010.5
20260509025340 49 0 0.0 0.0 0.00 0.00 0.00 95 1010.9
20260509023842 49 0 0.0 0.0 0.00 0.00 0.00 95 1010.9
20260509023839 49 0 0.0 0.0 0.00 0.00 0.00 95 1010.9
20260509022339 50 0 0.0 0.0 0.00 0.00 0.00 94 1011.3
20260509020842 50 0 0.0 0.0 0.00 0.00 0.00 94 1011.3
20260509020839 50 0 0.0 0.0 0.00 0.00 0.00 94 1011.3
20260509015339 51 0 0.0 0.0 0.00 0.00 0.00 94 1011.6
20260509013842 51 0 0.0 0.0 0.00 0.00 0.00 94 1011.6
20260509012339 51 0 0.0 0.0 0.00 0.00 0.00 94 1012.1
20260509010839 51 0 0.0 0.0 0.00 0.00 0.00 94 1012.1
20260509005339 51 0 0.0 0.0 0.00 0.00 0.00 94 1012.2
20260509003839 51 0 0.0 0.0 0.00 0.00 0.00 94 1012.2
20260509002339 51 0 0.0 0.0 0.00 0.00 0.00 94 1012.4
20260509000841 51 0 0.0 0.0 0.00 0.00 0.00 94 1012.4
20260508235339 51 0 0.0 0.0 0.00 0.00 0.00 94 1012.5
20260508233839 51 0 0.0 0.0 0.00 0.00 0.00 94 1012.5
20260508232339 53 0 0.0 0.0 0.00 0.00 0.00 93 1012.6
20260508230839 53 0 0.0 0.0 0.00 0.00 0.00 93 1012.6
20260508225339 53 0 0.0 0.0 0.00 0.00 0.00 93 1012.9
20260508223839 53 0 0.0 0.0 0.00 0.00 0.00 93 1012.9
20260508222339 54 0 0.0 0.0 0.00 0.00 0.00 92 1013.2
20260508220839 54 0 0.0 0.0 0.00 0.00 0.00 92 1013.2
20260508215339 55 0 0.0 0.0 0.00 0.00 0.00 92 1013.5
20260508213839 55 0 0.0 0.0 0.00 0.00 0.00 92 1013.5
20260508212339 56 0 0.0 0.0 0.00 0.00 0.00 91 1013.8
20260508210839 56 0 0.0 0.0 0.00 0.00 0.00 91 1013.8
20260508205339 56 0 0.0 0.0 0.00 0.00 0.00 91 1014.0
20260508203839 56 0 0.0 0.0 0.00 0.00 0.00 91 1014.0
20260508202339 57 0 0.0 0.0 0.00 0.00 0.00 90 1014.1
20260508200841 57 0 0.0 0.0 0.00 0.00 0.00 90 1014.1
20260508200839 57 0 0.0 0.0 0.00 0.00 0.00 90 1014.1
20260508195339 58 0 0.0 0.0 0.00 0.00 0.00 89 1014.3
20260508193841 58 0 0.0 0.0 0.00 0.00 0.00 89 1014.3
20260508192339 58 0 0.0 0.0 0.00 0.00 0.00 88 1014.4
20260508190839 58 0 0.0 0.0 0.00 0.00 0.00 88 1014.4
20260508185339 60 0 0.0 0.0 0.00 0.00 0.00 87 1014.5
20260508183839 60 0 0.0 0.0 0.00 0.00 0.00 87 1014.5
20260508182339 60 0 0.0 0.0 0.00 0.00 0.00 85 1014.7
20260508180842 60 0 0.0 0.0 0.00 0.00 0.00 85 1014.7
20260508180839 60 0 0.0 0.0 0.00 0.00 0.00 85 1014.7
20260508175339 61 0 0.0 0.0 0.00 0.00 0.00 84 1014.7
20260508173839 61 0 0.0 0.0 0.00 0.00 0.00 84 1014.7